Location: Anciles
(42.5833°N, 0.5167°E)
Time: 09:57:32
(UTC+00:00)

Cosmos 1441 Rocket - Pass Details

Date: 10 December 2019
Orbit: 496 x 542 km, 81.1° (Epoch: 17 January)

Event Time Altitude Azimuth Distance (km) Brightness Sun altitude
Rises 18:07:58 0° 349° (N) 2,643 6.8 -18.3°
Reaches altitude 10° 18:10:08 10° 349° (NNW) 1,743 5.8 -18.7°
Maximum altitude 18:13:57 84° 262° (W) 516 3.1 -19.4°
Drops below altitude 10° 18:17:42 10° 173° (S) 1,705 5.9 -20.1°
Sets 18:19:47 0° 173° (S) 2,579 6.8 -20.5°
